Location: Foulognes
(49.1413°N, 0.8183°W)
Time: 06:09:50
(UTC+00:00)

STARLINK-35 - Pass Details

Date: 21 October 2019
Orbit: 548 x 551 km, 53.0° (Epoch: 15 November)

Event Time Altitude Azimuth Distance (km) Brightness Sun altitude
Rises 18:22:48 0° 279° (W) 2,718 9.0 -13.8°
Reaches altitude 10° 18:25:06 10° 285° (WNW) 1,825 7.6 -14.2°
Maximum altitude 18:29:07 48° 0° (N) 725 4.2 -14.9°
Enters shadow 18:31:15 25° 63° (ENE) 1,145 4.7 -15.2°
